METEOR 2-6 DEB, 28986

Orbit data source: Space-Track

METEOR 2-6 DEB, 28986 is space debris in LEO originally from a launch on Tue, 09 Sep 1980 UTC launched from the Plesetsk Missile And Space Complex (PKMTR). Debris objects in space refer to the collection of defunct objects orbiting the Earth. Examples of debris include non-operational satellites, rocket bodies, and fragments generated from explosions, collisions, or faulty payload assembly.

Loading next visibility...
Identifier
28986, 1980-073C
Orbit
LEO
Country
Flag of CISCIS
Related business
Manufacturer
Unknown
Mission
Spacecraft
Bus & Motor
Unknown
Mass
Unknown
Launch date (UTC)
1980-09-09 (45 years ago)
Launch vehicle
Unknown
Launch site
Plesetsk Missile And Space Complex (PKMTR)
Object type
Payload
Rocket body
Debris
Shape & HBR
Unknown
Radar Cross Section
Small (<0.1 m²)

Expand to show TLE details & history
Last TLE update: 5 days ago

TLE from 5 days ago
0 METEOR 2-6 DEB
1 28986U 80073C   25237.66350501  .00009488  00000-0  21111-2 0  9993
2 28986  81.2040 216.9764 0021286 183.2658 176.8404 14.56757306608847
Epoch: 2025-08-25T15:55Z
TLE epoch observation values (Epoch: 2025-08-25T15:55:26.832Z)
Latitude
0.00003°
Longitude
3.94828°
Altitude
721.68 km
Speed
7.487 km/s
True Right ascension
14h 27m 54s
True Declination
0° 00' 00"
Sunlit
Object was in daylight at epoch
Visualization orbit readout
Latitude
Unknown
Longitude
Unknown
Altitude
Unknown
Speed
Unknown
Apparent Right ascension
Unknown
Apparent Declination
Unknown
Sunlit
N/A
Visualization observer readout
Local Sidereal Time
07:47:06
Azimuth
Unknown
Elevation
Unknown
Doppler factor
Unknown
Orbital elements
Apogee altitude
715.846 km
Perigee altitude
685.709 km
Semi-major axis
7,078.915 km
Eccentricity
0.00213
Inclination
81.204°
RAAN
216.9764°
Arg. of periapsis
183.2658°
True anomaly
176.85381°
Mean anomaly
176.8404°
Eccentric anomaly
176.84711°
Mean motion
3.64412 °/min
Orbital period
98.79 mins
BSTAR
0.0021111
Loading maneuver chart data...
Computing Atmospheric mass density...
Loading historical data...
Loading historical data...
Loading historical data...
Loading historical data...
Loading historical data...
Loading historical data...
Loading historical data...

Documentation

Showing up to 5 results
|